| time (UTC) | temp F | wind direction | speed MPH | gust MPH | rain 1hr in | rain 24hr in | rain mn in | humidity % | barometer mb |
| 20260504183206 | 56 | 312 | 14.0 | 21.0 | 0.00 | 0.00 | 0.00 | 55 | 1013.1 |
| 20260504182204 | 56 | 300 | 13.0 | 19.0 | 0.00 | 0.00 | 0.00 | 55 | 1013.2 |
| 20260504181704 | 56 | 306 | 13.0 | 19.0 | 0.00 | 0.00 | 0.00 | 55 | 1013.3 |
| 20260504181205 | 56 | 293 | 12.0 | 17.0 | 0.00 | 0.00 | 0.00 | 55 | 1013.3 |
| 20260504180704 | 56 | 323 | 11.0 | 18.0 | 0.00 | 0.00 | 0.00 | 55 | 1013.3 |
| 20260504180204 | 57 | 292 | 11.0 | 18.0 | 0.00 | 0.00 | 0.00 | 54 | 1013.3 |
| 20260504175704 | 56 | 288 | 11.0 | 16.0 | 0.00 | 0.00 | 0.00 | 54 | 1013.2 |
| 20260504174705 | 56 | 315 | 9.0 | 17.0 | 0.00 | 0.00 | 0.00 | 53 | 1013.3 |
| 20260504174204 | 56 | 327 | 10.0 | 17.0 | 0.00 | 0.00 | 0.00 | 54 | 1013.3 |
| 20260504173204 | 56 | 303 | 9.0 | 16.0 | 0.00 | 0.00 | 0.00 | 54 | 1013.1 |
| 20260504172704 | 56 | 314 | 11.0 | 17.0 | 0.00 | 0.00 | 0.00 | 55 | 1013.2 |
| 20260504172204 | 55 | 320 | 11.0 | 17.0 | 0.00 | 0.00 | 0.00 | 56 | 1013.3 |
| 20260504171704 | 55 | 304 | 11.0 | 16.0 | 0.00 | 0.00 | 0.00 | 56 | 1013.3 |
| 20260504170704 | 55 | 320 | 10.0 | 16.0 | 0.00 | 0.00 | 0.00 | 55 | 1013.3 |
| 20260504170204 | 55 | 298 | 10.0 | 14.0 | 0.00 | 0.00 | 0.00 | 54 | 1013.3 |
| 20260504160204 | 52 | 321 | 10.0 | 18.0 | 0.00 | 0.00 | 0.00 | 58 | 1013.2 |
| 20260504150705 | 50 | 315 | 11.0 | 17.0 | 0.00 | 0.00 | 0.00 | 65 | 1012.9 |
| 20260504141205 | 46 | 304 | 10.0 | 16.0 | 0.00 | 0.00 | 0.00 | 73 | 1012.9 |
| 20260504140704 | 46 | 327 | 9.0 | 15.0 | 0.00 | 0.00 | 0.00 | 75 | 1013.0 |
| 20260504130204 | 45 | 346 | 11.0 | 19.0 | 0.00 | 0.00 | 0.00 | 80 | 1012.5 |
| 20260504120204 | 45 | 322 | 11.0 | 18.0 | 0.00 | 0.00 | 0.00 | 81 | 1012.3 |
| 20260504110704 | 46 | 307 | 11.0 | 16.0 | 0.00 | 0.00 | 0.00 | 79 | 1012.2 |
| 20260504110204 | 46 | 312 | 10.0 | 14.0 | 0.00 | 0.00 | 0.00 | 78 | 1012.3 |
| 20260504100206 | 48 | 324 | 11.0 | 18.0 | 0.00 | 0.00 | 0.00 | 69 | 1012.4 |
| 20260504081704 | 50 | 324 | 12.0 | 21.0 | 0.00 | 0.00 | 0.00 | 64 | 1012.9 |
| 20260504081204 | 50 | 331 | 13.0 | 21.0 | 0.00 | 0.00 | 0.00 | 63 | 1012.8 |
| 20260504060205 | 52 | 12 | 6.0 | 10.0 | 0.00 | 0.00 | 0.00 | 62 | 1012.3 |
| 20260504050704 | 53 | 334 | 14.0 | 24.0 | 0.00 | 0.00 | 0.00 | 62 | 1012.0 |
| 20260504050204 | 53 | 327 | 14.0 | 20.0 | 0.00 | 0.00 | 0.00 | 62 | 1012.0 |
| 20260504045706 | 53 | 344 | 13.0 | 23.0 | 0.00 | 0.00 | 0.00 | 62 | 1012.0 |
| 20260504045204 | 53 | 353 | 14.0 | 23.0 | 0.00 | 0.00 | 0.00 | 61 | 1012.0 |
| 20260504044705 | 54 | 343 | 15.0 | 22.0 | 0.00 | 0.00 | 0.00 | 60 | 1012.0 |
| 20260504044204 | 54 | 317 | 14.0 | 23.0 | 0.00 | 0.00 | 0.00 | 59 | 1012.0 |
| 20260504043704 | 54 | 332 | 15.0 | 23.0 | 0.00 | 0.00 | 0.00 | 59 | 1011.9 |
| 20260504043205 | 54 | 329 | 15.0 | 25.0 | 0.00 | 0.00 | 0.00 | 58 | 1011.8 |
| 20260504042704 | 54 | 332 | 16.0 | 25.0 | 0.00 | 0.00 | 0.00 | 58 | 1011.6 |
| 20260504042204 | 54 | 344 | 16.0 | 27.0 | 0.00 | 0.00 | 0.00 | 58 | 1011.5 |
| 20260504041704 | 54 | 327 | 15.0 | 27.0 | 0.00 | 0.00 | 0.00 | 58 | 1011.5 |
| 20260504041204 | 54 | 348 | 16.0 | 27.0 | 0.00 | 0.00 | 0.00 | 58 | 1011.5 |
| 20260504040703 | 55 | 335 | 16.0 | 22.0 | 0.00 | 0.00 | 0.00 | 57 | 1011.3 |
| 20260504040204 | 55 | 313 | 15.0 | 22.0 | 0.00 | 0.00 | 0.00 | 56 | 1011.4 |
| 20260504035704 | 55 | 336 | 15.0 | 22.0 | 0.00 | 0.00 | 0.00 | 56 | 1011.3 |
| 20260504034704 | 55 | 313 | 12.0 | 23.0 | 0.00 | 0.00 | 0.00 | 55 | 1011.1 |
| 20260504034204 | 55 | 307 | 13.0 | 24.0 | 0.00 | 0.00 | 0.00 | 54 | 1010.8 |
| 20260504033704 | 55 | 312 | 15.0 | 24.0 | 0.00 | 0.00 | 0.00 | 54 | 1010.9 |
| 20260504033204 | 55 | 309 | 15.0 | 24.0 | 0.00 | 0.00 | 0.00 | 55 | 1011.0 |
| 20260504032704 | 55 | 331 | 15.0 | 27.0 | 0.00 | 0.00 | 0.00 | 56 | 1010.8 |
| 20260504032204 | 56 | 321 | 16.0 | 27.0 | 0.00 | 0.00 | 0.00 | 56 | 1010.8 |
| 20260504031704 | 56 | 306 | 15.0 | 27.0 | 0.00 | 0.00 | 0.00 | 57 | 1010.8 |
| 20260504031204 | 56 | 316 | 14.0 | 27.0 | 0.00 | 0.00 | 0.00 | 57 | 1010.5 |
| 20260504030704 | 56 | 321 | 15.0 | 27.0 | 0.00 | 0.00 | 0.00 | 57 | 1010.7 |
| 20260504030204 | 56 | 309 | 17.0 | 27.0 | 0.00 | 0.00 | 0.00 | 57 | 1010.4 |
| 20260504025704 | 56 | 298 | 17.0 | 27.0 | 0.00 | 0.00 | 0.00 | 57 | 1010.3 |
| 20260504025204 | 56 | 279 | 17.0 | 29.0 | 0.00 | 0.00 | 0.00 | 57 | 1010.2 |
| 20260504024704 | 56 | 319 | 17.0 | 29.0 | 0.00 | 0.00 | 0.00 | 57 | 1010.1 |
| 20260504024204 | 57 | 311 | 17.0 | 29.0 | 0.00 | 0.00 | 0.00 | 57 | 1010.1 |
| 20260504023704 | 57 | 319 | 16.0 | 28.0 | 0.00 | 0.00 | 0.00 | 57 | 1009.9 |
| 20260504023204 | 57 | 311 | 18.0 | 28.0 | 0.00 | 0.00 | 0.00 | 57 | 1010.0 |
| 20260504022704 | 58 | 325 | 19.0 | 28.0 | 0.00 | 0.00 | 0.00 | 56 | 1010.0 |
| 20260504022205 | 58 | 325 | 18.0 | 27.0 | 0.00 | 0.00 | 0.00 | 55 | 1009.9 |
| 20260504021704 | 58 | 309 | 17.0 | 29.0 | 0.00 | 0.00 | 0.00 | 57 | 1009.9 |
| 20260504021205 | 58 | 325 | 18.0 | 29.0 | 0.00 | 0.00 | 0.00 | 55 | 1009.8 |
| 20260504020704 | 59 | 322 | 18.0 | 29.0 | 0.00 | 0.00 | 0.00 | 56 | 1009.7 |
| 20260504020204 | 59 | 292 | 16.0 | 29.0 | 0.00 | 0.00 | 0.00 | 54 | 1009.8 |
| 20260504015704 | 59 | 329 | 17.0 | 29.0 | 0.00 | 0.00 | 0.00 | 54 | 1009.7 |
| 20260504014704 | 60 | 310 | 16.0 | 25.0 | 0.00 | 0.00 | 0.00 | 53 | 1009.7 |
| 20260504013204 | 60 | 342 | 18.0 | 30.0 | 0.00 | 0.00 | 0.00 | 53 | 1010.0 |
| 20260504012704 | 60 | 358 | 18.0 | 30.0 | 0.00 | 0.00 | 0.00 | 53 | 1009.8 |
| 20260504012204 | 61 | 337 | 17.0 | 28.0 | 0.00 | 0.00 | 0.00 | 51 | 1009.9 |
| 20260504011704 | 61 | 303 | 18.0 | 28.0 | 0.00 | 0.00 | 0.00 | 51 | 1009.9 |
| 20260504011204 | 62 | 345 | 16.0 | 27.0 | 0.00 | 0.00 | 0.00 | 50 | 1009.9 |
| 20260504010704 | 62 | 319 | 16.0 | 29.0 | 0.00 | 0.00 | 0.00 | 48 | 1009.8 |
| 20260504010204 | 62 | 333 | 18.0 | 29.0 | 0.00 | 0.00 | 0.00 | 48 | 1009.7 |
| 20260504005704 | 62 | 328 | 18.0 | 29.0 | 0.00 | 0.00 | 0.00 | 49 | 1009.9 |
| 20260504005204 | 62 | 302 | 19.0 | 29.0 | 0.00 | 0.00 | 0.00 | 50 | 1009.8 |
| 20260504004204 | 62 | 344 | 18.0 | 25.0 | 0.00 | 0.00 | 0.00 | 49 | 1009.7 |
| 20260504003704 | 63 | 297 | 18.0 | 30.0 | 0.00 | 0.00 | 0.00 | 49 | 1009.9 |
| 20260504003204 | 63 | 319 | 18.0 | 32.0 | 0.00 | 0.00 | 0.00 | 50 | 1009.7 |
| 20260504002704 | 63 | 304 | 20.0 | 32.0 | 0.00 | 0.00 | 0.00 | 50 | 1009.7 |
| 20260504002204 | 63 | 298 | 21.0 | 32.0 | 0.00 | 0.00 | 0.00 | 48 | 1009.4 |
| 20260504001705 | 63 | 316 | 21.0 | 31.0 | 0.00 | 0.00 | 0.00 | 47 | 1009.5 |
| 20260504001204 | 64 | 320 | 20.0 | 31.0 | 0.00 | 0.00 | 0.00 | 46 | 1009.7 |
| 20260504000704 | 64 | 315 | 20.0 | 27.0 | 0.00 | 0.00 | 0.00 | 45 | 1009.7 |
| 20260504000204 | 64 | 332 | 19.0 | 32.0 | 0.00 | 0.00 | 0.00 | 44 | 1009.3 |
| 20260503235704 | 64 | 308 | 20.0 | 32.0 | 0.00 | 0.00 | 0.00 | 46 | 1009.4 |
| 20260503235204 | 64 | 293 | 21.0 | 32.0 | 0.00 | 0.00 | 0.00 | 49 | 1009.4 |
| 20260503234704 | 64 | 306 | 20.0 | 32.0 | 0.00 | 0.00 | 0.00 | 49 | 1009.5 |
| 20260503233704 | 64 | 322 | 20.0 | 28.0 | 0.00 | 0.00 | 0.00 | 49 | 1009.7 |
| 20260503233204 | 64 | 333 | 20.0 | 30.0 | 0.00 | 0.00 | 0.00 | 50 | 1009.5 |
| 20260503232704 | 64 | 302 | 20.0 | 30.0 | 0.00 | 0.00 | 0.00 | 50 | 1009.7 |
| 20260503232204 | 64 | 304 | 20.0 | 30.0 | 0.00 | 0.00 | 0.00 | 49 | 1009.5 |
| 20260503231706 | 65 | 312 | 20.0 | 30.0 | 0.00 | 0.00 | 0.00 | 49 | 1009.5 |
| 20260503231204 | 65 | 319 | 21.0 | 30.0 | 0.00 | 0.00 | 0.00 | 49 | 1009.5 |
| 20260503230704 | 65 | 313 | 21.0 | 30.0 | 0.00 | 0.00 | 0.00 | 49 | 1009.5 |
| 20260503230204 | 65 | 311 | 19.0 | 29.0 | 0.00 | 0.00 | 0.00 | 49 | 1009.7 |
| 20260503225705 | 66 | 310 | 18.0 | 29.0 | 0.00 | 0.00 | 0.00 | 48 | 1009.7 |
| 20260503225204 | 65 | 272 | 19.0 | 29.0 | 0.00 | 0.00 | 0.00 | 48 | 1010.0 |
| 20260503224704 | 66 | 287 | 18.0 | 29.0 | 0.00 | 0.00 | 0.00 | 48 | 1009.9 |
| 20260503224204 | 66 | 289 | 18.0 | 29.0 | 0.00 | 0.00 | 0.00 | 48 | 1010.1 |
| 20260503223704 | 67 | 322 | 18.0 | 27.0 | 0.00 | 0.00 | 0.00 | 47 | 1009.8 |
| 20260503223204 | 67 | 297 | 18.0 | 27.0 | 0.00 | 0.00 | 0.00 | 48 | 1010.1 |
| 20260503222704 | 67 | 296 | 18.0 | 29.0 | 0.00 | 0.00 | 0.00 | 47 | 1010.1 |
| 20260503222205 | 67 | 286 | 19.0 | 29.0 | 0.00 | 0.00 | 0.00 | 48 | 1010.0 |
| 20260503221704 | 67 | 261 | 18.0 | 28.0 | 0.00 | 0.00 | 0.00 | 48 | 1010.3 |
| 20260503220705 | 67 | 282 | 18.0 | 26.0 | 0.00 | 0.00 | 0.00 | 47 | 1010.4 |
| 20260503220204 | 67 | 296 | 19.0 | 26.0 | 0.00 | 0.00 | 0.00 | 47 | 1010.4 |
| 20260503215204 | 68 | 285 | 19.0 | 26.0 | 0.00 | 0.00 | 0.00 | 45 | 1010.4 |
| 20260503214204 | 69 | 303 | 16.0 | 24.0 | 0.00 | 0.00 | 0.00 | 44 | 1010.7 |
| 20260503213705 | 68 | 323 | 17.0 | 24.0 | 0.00 | 0.00 | 0.00 | 45 | 1010.7 |
| 20260503213204 | 68 | 286 | 17.0 | 24.0 | 0.00 | 0.00 | 0.00 | 45 | 1010.8 |
| 20260503212704 | 68 | 279 | 17.0 | 24.0 | 0.00 | 0.00 | 0.00 | 45 | 1011.0 |
| 20260503212204 | 69 | 304 | 17.0 | 27.0 | 0.00 | 0.00 | 0.00 | 43 | 1011.0 |
| 20260503211704 | 69 | 358 | 18.0 | 27.0 | 0.00 | 0.00 | 0.00 | 43 | 1010.9 |
| 20260503211204 | 70 | 286 | 18.0 | 27.0 | 0.00 | 0.00 | 0.00 | 40 | 1010.8 |
| 20260503210705 | 70 | 358 | 17.0 | 25.0 | 0.00 | 0.00 | 0.00 | 41 | 1010.5 |
| 20260503210204 | 69 | 358 | 17.0 | 23.0 | 0.00 | 0.00 | 0.00 | 41 | 1010.9 |
| 20260503205704 | 69 | 283 | 17.0 | 25.0 | 0.00 | 0.00 | 0.00 | 41 | 1010.8 |
| 20260503205204 | 71 | 290 | 17.0 | 25.0 | 0.00 | 0.00 | 0.00 | 41 | 1010.8 |
| 20260503204704 | 72 | 358 | 17.0 | 25.0 | 0.00 | 0.00 | 0.00 | 37 | 1010.8 |
| 20260503204204 | 72 | 358 | 16.0 | 26.0 | 0.00 | 0.00 | 0.00 | 37 | 1010.8 |
| 20260503203704 | 71 | 305 | 17.0 | 26.0 | 0.00 | 0.00 | 0.00 | 38 | 1010.8 |
| 20260503203204 | 69 | 323 | 17.0 | 23.0 | 0.00 | 0.00 | 0.00 | 44 | 1010.9 |
| 20260503202704 | 69 | 313 | 16.0 | 24.0 | 0.00 | 0.00 | 0.00 | 46 | 1011.0 |
| 20260503202204 | 69 | 288 | 17.0 | 27.0 | 0.00 | 0.00 | 0.00 | 46 | 1011.1 |
| 20260503201704 | 69 | 296 | 18.0 | 27.0 | 0.00 | 0.00 | 0.00 | 47 | 1011.2 |
| 20260503201204 | 69 | 303 | 18.0 | 27.0 | 0.00 | 0.00 | 0.00 | 45 | 1011.2 |
| 20260503200204 | 67 | 284 | 16.0 | 25.0 | 0.00 | 0.00 | 0.00 | 49 | 1011.3 |
| 20260503195204 | 67 | 307 | 19.0 | 27.0 | 0.00 | 0.00 | 0.00 | 51 | 1011.4 |
| 20260503194704 | 66 | 289 | 20.0 | 27.0 | 0.00 | 0.00 | 0.00 | 51 | 1011.4 |
| 20260503194204 | 66 | 294 | 18.0 | 26.0 | 0.00 | 0.00 | 0.00 | 53 | 1011.3 |
| 20260503193704 | 65 | 332 | 18.0 | 26.0 | 0.00 | 0.00 | 0.00 | 54 | 1011.5 |
| 20260503192704 | 65 | 304 | 19.0 | 26.0 | 0.00 | 0.00 | 0.00 | 53 | 1011.8 |
| 20260503191705 | 65 | 296 | 18.0 | 27.0 | 0.00 | 0.00 | 0.00 | 56 | 1011.8 |
| 20260503191205 | 64 | 283 | 19.0 | 27.0 | 0.00 | 0.00 | 0.00 | 57 | 1011.9 |
| 20260503190204 | 64 | 310 | 18.0 | 27.0 | 0.00 | 0.00 | 0.00 | 57 | 1012.0 |
| 20260503185704 | 64 | 283 | 18.0 | 26.0 | 0.00 | 0.00 | 0.00 | 55 | 1012.0 |
| 20260503185203 | 65 | 289 | 18.0 | 26.0 | 0.00 | 0.00 | 0.00 | 54 | 1012.0 |
| 20260503184704 | 65 | 304 | 17.0 | 26.0 | 0.00 | 0.00 | 0.00 | 53 | 1012.1 |
| 20260503184205 | 65 | 300 | 16.0 | 23.0 | 0.00 | 0.00 | 0.00 | 53 | 1012.1 |